| time (UTC) | temp F | wind direction | speed knots | gust knots | rain 1hr in | rain 24hr in | rain mn in | humidity % | barometer mb |
| 20260504045018 | 60 | 201 | 1.7 | 3.5 | 0.00 | 0.00 | 0.00 | 60 | 1013.9 |
| 20260504044044 | 60 | 196 | 1.7 | 3.5 | 0.00 | 0.00 | 0.00 | 60 | 1013.9 |
| 20260504043029 | 60 | 188 | 1.7 | 3.5 | 0.00 | 0.00 | 0.00 | 59 | 1014.0 |
| 20260504042016 | 60 | 200 | 1.7 | 3.5 | 0.00 | 0.00 | 0.00 | 59 | 1014.2 |
| 20260504041021 | 60 | 196 | 0.9 | 2.6 | 0.00 | 0.00 | 0.00 | 59 | 1014.2 |
| 20260504040026 | 60 | 211 | 0.9 | 3.5 | 0.00 | 0.00 | 0.00 | 60 | 1014.4 |
| 20260504035031 | 59 | 195 | 0.9 | 2.6 | 0.00 | 0.00 | 0.00 | 60 | 1014.4 |
| 20260504034018 | 59 | 207 | 0.0 | 2.6 | 0.00 | 0.00 | 0.00 | 60 | 1014.4 |
| 20260504033024 | 59 | 284 | 0.0 | 0.9 | 0.00 | 0.00 | 0.00 | 60 | 1014.6 |
| 20260504032029 | 59 | 350 | 0.0 | 0.9 | 0.00 | 0.00 | 0.00 | 60 | 1014.6 |
| 20260504031017 | 60 | 0.0 | 0.9 | 0.00 | 0.00 | 0.00 | 59 | 1014.6 | |
| 20260504030021 | 60 | 62 | 0.0 | 0.9 | 0.00 | 0.00 | 0.00 | 59 | 1014.6 |
| 20260504025027 | 61 | 132 | 0.0 | 0.9 | 0.00 | 0.00 | 0.00 | 57 | 1014.5 |
| 20260504024031 | 61 | 198 | 0.0 | 2.6 | 0.00 | 0.00 | 0.00 | 57 | 1014.6 |
| 20260504023040 | 62 | 198 | 0.0 | 1.7 | 0.00 | 0.00 | 0.00 | 55 | 1014.5 |
| 20260504022044 | 63 | 204 | 0.0 | 1.7 | 0.00 | 0.00 | 0.00 | 54 | 1014.5 |
| 20260504021050 | 63 | 208 | 0.9 | 2.6 | 0.00 | 0.00 | 0.00 | 53 | 1014.4 |
| 20260504020037 | 64 | 206 | 1.7 | 3.5 | 0.00 | 0.00 | 0.00 | 52 | 1014.2 |
| 20260504015023 | 64 | 206 | 1.7 | 3.5 | 0.00 | 0.00 | 0.00 | 52 | 1014.2 |
| 20260504014027 | 64 | 207 | 1.7 | 2.6 | 0.00 | 0.00 | 0.00 | 52 | 1014.2 |
| 20260504013033 | 64 | 213 | 1.7 | 3.5 | 0.00 | 0.00 | 0.00 | 51 | 1014.1 |
| 20260504012021 | 64 | 221 | 1.7 | 6.1 | 0.00 | 0.00 | 0.00 | 50 | 1014.0 |
| 20260504011025 | 64 | 202 | 1.7 | 3.5 | 0.00 | 0.00 | 0.00 | 50 | 1013.9 |
| 20260504010030 | 65 | 188 | 1.7 | 5.2 | 0.00 | 0.00 | 0.00 | 47 | 1014.1 |
| 20260504005018 | 66 | 204 | 2.6 | 5.2 | 0.00 | 0.00 | 0.00 | 45 | 1014.3 |
| 20260504004023 | 67 | 212 | 1.7 | 6.1 | 0.00 | 0.00 | 0.00 | 46 | 1014.3 |
| 20260504003029 | 67 | 213 | 2.6 | 6.1 | 0.00 | 0.00 | 0.00 | 44 | 1014.3 |
| 20260504002016 | 68 | 205 | 2.6 | 6.1 | 0.00 | 0.00 | 0.00 | 44 | 1014.2 |
| 20260504001041 | 69 | 188 | 2.6 | 5.2 | 0.00 | 0.00 | 0.00 | 42 | 1014.3 |
| 20260504000026 | 69 | 218 | 2.6 | 6.1 | 0.00 | 0.00 | 0.00 | 42 | 1014.4 |
| 20260503235031 | 69 | 195 | 2.6 | 6.1 | 0.00 | 0.00 | 0.00 | 42 | 1014.3 |
| 20260503234019 | 69 | 188 | 3.5 | 7.0 | 0.00 | 0.00 | 0.00 | 41 | 1014.2 |
| 20260503233024 | 70 | 209 | 3.5 | 7.8 | 0.00 | 0.00 | 0.00 | 41 | 1014.5 |
| 20260503232029 | 70 | 234 | 3.5 | 8.7 | 0.00 | 0.00 | 0.00 | 40 | 1014.9 |
| 20260503231017 | 70 | 237 | 3.5 | 9.6 | 0.00 | 0.00 | 0.00 | 39 | 1014.8 |
| 20260503230022 | 71 | 203 | 3.5 | 9.6 | 0.00 | 0.00 | 0.00 | 40 | 1015.1 |
| 20260503225027 | 71 | 194 | 2.6 | 11.3 | 0.00 | 0.00 | 0.00 | 40 | 1015.2 |
| 20260503224032 | 71 | 223 | 4.3 | 13.0 | 0.00 | 0.00 | 0.00 | 39 | 1015.1 |
| 20260503223020 | 70 | 213 | 2.6 | 7.8 | 0.00 | 0.00 | 0.00 | 40 | 1015.3 |
| 20260503222045 | 71 | 175 | 3.5 | 7.8 | 0.00 | 0.00 | 0.00 | 41 | 1015.6 |
| 20260503221050 | 71 | 234 | 3.5 | 7.0 | 0.00 | 0.00 | 0.00 | 41 | 1015.7 |
| 20260503220017 | 71 | 221 | 4.3 | 9.6 | 0.00 | 0.00 | 0.00 | 41 | 1015.8 |
| 20260503215023 | 70 | 197 | 3.5 | 7.8 | 0.00 | 0.00 | 0.00 | 41 | 1016.1 |
| 20260503214124 | 70 | 222 | 3.5 | 7.0 | 0.00 | 0.00 | 0.00 | 41 | 1016.3 |
| 20260503213032 | 71 | 203 | 5.2 | 9.6 | 0.00 | 0.00 | 0.00 | 40 | 1016.5 |
| 20260503212021 | 71 | 225 | 2.6 | 7.0 | 0.00 | 0.00 | 0.00 | 42 | 1016.4 |
| 20260503211046 | 70 | 212 | 4.3 | 12.2 | 0.00 | 0.00 | 0.00 | 42 | 1017.1 |
| 20260503210030 | 70 | 227 | 6.1 | 12.2 | 0.00 | 0.00 | 0.00 | 42 | 1017.0 |
| 20260503205019 | 70 | 206 | 3.5 | 11.3 | 0.00 | 0.00 | 0.00 | 43 | 1017.1 |
| 20260503204023 | 70 | 188 | 4.3 | 13.0 | 0.00 | 0.00 | 0.00 | 43 | 1017.3 |
| 20260503203028 | 70 | 213 | 5.2 | 12.2 | 0.00 | 0.00 | 0.00 | 43 | 1017.7 |
| 20260503202017 | 70 | 231 | 4.3 | 12.2 | 0.00 | 0.00 | 0.00 | 43 | 1017.9 |
| 20260503201021 | 70 | 214 | 3.5 | 5.2 | 0.00 | 0.00 | 0.00 | 43 | 1018.1 |
| 20260503200027 | 69 | 212 | 4.3 | 9.6 | 0.00 | 0.00 | 0.00 | 42 | 1018.5 |
| 20260503195031 | 69 | 249 | 7.8 | 14.8 | 0.00 | 0.00 | 0.00 | 41 | 1018.6 |
| 20260503194019 | 69 | 203 | 3.5 | 7.0 | 0.00 | 0.00 | 0.00 | 44 | 1019.1 |
| 20260503193024 | 69 | 231 | 5.2 | 12.2 | 0.00 | 0.00 | 0.00 | 44 | 1019.0 |
| 20260503192029 | 68 | 243 | 3.5 | 7.8 | 0.00 | 0.00 | 0.00 | 46 | 1019.2 |
| 20260503191018 | 68 | 240 | 3.5 | 9.6 | 0.00 | 0.00 | 0.00 | 45 | 1019.4 |
| 20260503190022 | 68 | 227 | 2.6 | 6.1 | 0.00 | 0.00 | 0.00 | 47 | 1019.7 |
| 20260503185027 | 67 | 199 | 3.5 | 7.8 | 0.00 | 0.00 | 0.00 | 47 | 1019.9 |
| 20260503184033 | 67 | 244 | 6.1 | 12.2 | 0.00 | 0.00 | 0.00 | 47 | 1020.2 |
| 20260503183020 | 66 | 237 | 4.3 | 11.3 | 0.00 | 0.00 | 0.00 | 46 | 1020.6 |
| 20260503182025 | 67 | 264 | 6.1 | 13.0 | 0.00 | 0.00 | 0.00 | 46 | 1020.8 |
| 20260503181030 | 67 | 191 | 4.3 | 9.6 | 0.00 | 0.00 | 0.00 | 46 | 1020.7 |
| 20260503180018 | 66 | 252 | 2.6 | 8.7 | 0.00 | 0.00 | 0.00 | 47 | 1021.1 |
| 20260503175022 | 66 | 224 | 4.3 | 12.2 | 0.00 | 0.00 | 0.00 | 48 | 1021.1 |
| 20260503174109 | 65 | 263 | 2.6 | 7.8 | 0.00 | 0.00 | 0.00 | 48 | 1021.4 |
| 20260503173113 | 65 | 244 | 4.3 | 11.3 | 0.00 | 0.00 | 0.00 | 47 | 1021.2 |
| 20260503172021 | 64 | 205 | 2.6 | 6.1 | 0.00 | 0.00 | 0.00 | 49 | 1021.4 |
| 20260503171025 | 65 | 222 | 3.5 | 7.0 | 0.00 | 0.00 | 0.00 | 50 | 1021.4 |
| 20260503160106 | 61 | 222 | 3.5 | 7.8 | 0.00 | 0.00 | 0.00 | 54 | 1022.4 |
| 20260503131026 | 49 | 16 | 0.0 | 2.6 | 0.00 | 0.00 | 0.00 | 99 | 1022.5 |
| 20260503081039 | 39 | 0.0 | 0.0 | 0.00 | 0.00 | 0.00 | 99 | 1021.7 | |
| 20260503080107 | 39 | 0.0 | 0.0 | 0.00 | 0.00 | 0.00 | 99 | 1021.7 | |
| 20260503072030 | 39 | 0.0 | 0.0 | 0.00 | 0.00 | 0.00 | 99 | 1021.7 | |
| 20260503071018 | 39 | 0.0 | 0.0 | 0.00 | 0.00 | 0.00 | 99 | 1021.7 |